Regional Weather Roundup
Issued by NWS Upton, NY

Current Version | Previous Version | Graphics & Text | Print | Product List | Glossary Off
Versions: 1 2 3 4 5 6 7 8 9 10 11 12 13 14 15 16 17 18 19 20 21 22 23 24 25 26 27 28 29 30 31 32 33 34 35 36 37 38 39 40 41 42 43 44 45 46 47 48 49 50

000
ASUS41 KOKX 312005
RWROKX

REGIONAL WEATHER ROUNDUP
NATIONAL WEATHER SERVICE NEW YORK NY
400 PM EDT SUN AUG 31 2014

NOTE: "FAIR" INDICATES FEW OR NO CLOUDS BELOW 12,000 FEET WITH NO
SIGNIFICANT WEATHER AND/OR OBSTRUCTIONS TO VISIBILITY.

NYZ071-072-176-178-NJZ106-104-312100-
NEW YORK CITY METRO AREA


CITY           SKY/WX    TMP DP  RH WIND       PRES   REMARKS
CENTRAL PARK   PTSUNNY   85  70  60 VRB6      29.99F
LAGUARDIA APRT PTSUNNY   86  71  60 S16       29.95F HX  91
KENNEDY INTL   PTSUNNY   83  73  72 S16       29.98F
NEWARK/LIBERTY PTSUNNY   90  70  51 S16G22    29.95F THUNDER HX  95
BRNX BOT. GARD   N/A     84  72  65 S6        29.98S
TETERBORO      CLOUDY    90  68  48 SW7G17    29.93F HX  94
$$

NYZ177-179-078>081-312100-
LONG ISLAND NEW YORK

CITY           SKY/WX    TMP DP  RH WIND       PRES   REMARKS
FARMINGDALE    SUNNY     81  73  76 S15       29.99F
ISLIP          PTSUNNY   81  72  74 S12       29.98F
SHIRLEY        MOSUNNY   80  72  76 S13G21    30.00F
WESTHAMPTON    MOSUNNY   80  72  76 S10G20    30.02F
MONTAUK POINT    N/A     77  72  84 SW8       30.03F
$$

NYZ052-065-067-312100-
HUDSON VALLEY

CITY           SKY/WX    TMP DP  RH WIND       PRES   REMARKS
WHITE PLAINS   PTSUNNY   84  71  65 SE5       29.97F
NEWBURGH       PTSUNNY   82  72  69 W7        29.98F
MONTGOMERY     CLOUDY    84  70  62 SW9       29.96F
POUGHKEEPSIE   PTSUNNY   83  71  67 SE3       29.94F
ALBANY         LGT RAIN  75  71  87 S6        29.95F FOG
$$

NJZ001-105-106-008-010-013-015-019>022-104-312100-
NEW JERSEY

CITY           SKY/WX    TMP DP  RH WIND       PRES   REMARKS
NEWARK/LIBERTY PTSUNNY   90  70  51 S16G22    29.95F THUNDER HX  95
TETERBORO      CLOUDY    90  68  48 SW7G17    29.93F HX  94
CALDWELL       HVY RAIN  83  72  69 W10G16    29.98S
MORRISTOWN     TSTM      84  72  65 NW16G29   29.98S
SOMERVILLE     FOG       76  73  91 VRB5      29.99R VSB 3/4
LINDEN         MOCLDY    93  70  46 S7        29.96F HX  99
SUSSEX         CLOUDY    81  74  79 CALM      29.98S
ANDOVER          N/A     83  70  64 SW8       29.99F
TRENTON        PTSUNNY   86  68  54 SW9       29.98S
MILLVILLE      MOSUNNY  N/A N/A N/A SW12G20   30.01F
ATLANTIC CITY  SUNNY     86  72  62 S10G22    30.02F HX  92
WRIGHTSTOWN    MOSUNNY   83  75  76 SW8       29.97S HX  91
TOMS RIVER     PTSUNNY   90  73  58 S8G17     29.99S HX  98
BELMAR         MOSUNNY   90  70  51 SW12G21   29.98F HX  95
$$

PAZ047>061-062-071-312100-
EASTERN PENNSYLVANIA

CITY           SKY/WX    TMP DP  RH WIND       PRES   REMARKS
PHILADELPHIA   PTSUNNY   88  70  55 SW16      29.99S HX  93
ALLENTOWN      CLOUDY    84  73  69 SW6       29.99F HX  90
SCRANTON       CLOUDY    73  70  90 W3        30.02S
$$

CTZ002-004>006-009-010-012-RIZ004-006-007-MAZ004-011-015-312100-
SOUTHERN NEW ENGLAND
 IN CT

CITY           SKY/WX    TMP DP  RH WIND       PRES   REMARKS
BRADLEY INTL   PTSUNNY   86  69  56 SW10G18   29.96F HX  90
HARTFORD       PTSUNNY   85  68  56 VRB7      29.96F
DANBURY        MOSUNNY   83  71  67 S7        29.99F
WTRBRY/OXFORD  MOSUNNY   82  70  65 SW7       30.02F
BRIDGEPORT     PTSUNNY   81  72  74 E10       29.97F
MERIDEN        MOSUNNY   87  70  56 VRB6      29.97F HX  92
NEW HAVEN      PTSUNNY   83  72  69 SE8       29.98F
CHESTER        CLOUDY    81  73  78 S6        30.01F
GROTON         MOSUNNY   76  72  87 S10       29.99F
WILLIMANTIC    PTSUNNY   83  71  67 SW10      29.99F

 IN RI

CITY           SKY/WX    TMP DP  RH WIND       PRES   REMARKS
PROVIDENCE     PTSUNNY   84  71  65 SW12      30.00F
BLOCK ISLAND   CLOUDY    75  70  83 SW15      30.03F
WESTERLY       CLOUDY    77  71  82 S10       30.02F

 IN MA

CITY           SKY/WX    TMP DP  RH WIND       PRES   REMARKS
BOSTON         PTSUNNY   84  70  62 SW17      29.97F
WORCESTER      CLOUDY    77  70  79 SW12      30.02F
WESTFIELD      PTSUNNY   82  70  66 S9        29.96F
PROVINCETOWN   MOSUNNY   77  68  73 SW20      30.00F
NANTUCKET      MOSUNNY   74  67  78 SW10      30.05F
$$

ANZ330-335-338-340-345-350-353-355-312100-
COASTAL MARINE OBSERVATIONS


STATION/POSITION TIME  SKY/WX   TEMP    WIND        PRES    VSBY  WAVE
                                AIR SEA DIR/SP/G                  HT/PER
                 (UTC)          (F)     (DEG/KT/KT) (MB)    (MI)  (FT/S)
NY HARB ENTRANCE NOT AVBL
4S FIRE IS       NOT AVBL
23SW MTP         2000                                 N/A           4/ 5
HUDSON CANYON    2000            75 73  200/ 16/ 17 1017.3          4/ 8
EXECUTION ROCKS  2000            83 75  190/ 12/ 17   N/A
WESTERN LI SOUND 2000            84     170/ 12/ 14   N/A           1
CENTRAL LI SOUND 2000            76 75  120/  4/  6   N/A           1
EASTERN LI SOUND 1900            75 69  200/  4/  8   N/A
ROBBINS REEF     2000            84     170/ 12/ 14   N/A
$$


>>>>>>>>>>>>>>>>>>>>>>>>>>>> KEY <<<<<<<<<<<<<<<<<<<<<<<<<<<
>                                                          <
>     SKY/WX - SKY CONDITION/PRESENT WEATHER               <
>     TMP    - TEMPERATURE IN FAHRENHEIT                   <
>     DP     - DEWPOINT IN FAHRENHEIT                      <
>     RH     - RELATIVE HUMIDITY IN PERCENT                <
>     WIND   - DIRECTION AND SPEED IN MPH                  <
>     PRES   - MEAN SEA LEVEL PRESSURE IN INCHES OF HG     <
>     WCI    - WIND CHILL INDEX                            <
>     VSB    - VISIBILITY IN MILES                         <
>     HX     - HEAT INDEX                                  <
>     TC     - TEMPERATURE IN CELSIUS                      <
>     VRB    - VARIABLE WIND DIRECTION                     <
>                                                          <
>>>>>>>>>>>>>>>>>>>>>>>>>>>> KEY <<<<<<<<<<<<<<<<<<<<<<<<<<<




USA.gov is the U.S. government's official web portal to all federal, state and local government web resources and services.